DW9584 Weather Reports


time (UTC)temp
F
wind
direction
speed
knots
gust
knots
rain 1hr
in
rain 24hr
in
rain mn
in
humidity
%
barometer
mb
20260903193026 86 170 0.0 2.6 0.00 0.79 0.79 72 1013.5
20260903191535 85 209 0.0 2.6 0.00 0.79 0.79 71 1013.8
20260903190016 85 310 0.0 2.6 0.00 0.79 0.79 72 1014.2
20260903184512 85 269 0.0 6.1 0.00 0.79 0.79 74 1014.4
20260903183022 84 149 1.7 5.2 0.00 0.79 0.79 72 1014.3
20260903181531 84 275 0.9 2.6 0.00 0.81 0.79 73 1014.4
20260903180034 83 179 1.7 3.5 0.00 0.83 0.79 77 1014.4
20260903174528 83 179 0.9 4.3 0.00 0.87 0.79 77 1014.6
20260903173025 82 181 0.0 2.6 0.00 0.89 0.79 79 1014.7
20260903171535 82 321 0.0 3.5 0.01 0.89 0.79 79 1015.0
20260903170018 82 207 0.0 3.5 0.01 0.89 0.79 79 1015.2
20260903164519 81 205 0.9 3.5 0.01 0.89 0.79 81 1015.5
20260903163015 81 251 0.0 4.3 0.01 0.89 0.79 81 1015.7
20260903161531 81 271 0.0 5.2 0.00 0.88 0.78 82 1016.1
20260903160033 80 243 0.9 3.5 0.00 0.88 0.78 82 1016.4
20260903154532 80 300 0.9 4.3 0.00 0.88 0.78 83 1016.4
20260903153031 79 298 0.0 5.2 0.00 0.88 0.78 85 1016.4
20260903151529 78 114 0.0 3.5 0.00 0.88 0.78 87 1016.5
20260903150027 78 275 0.0 3.5 0.00 0.88 0.78 89 1016.3
20260903144523 77 196 0.9 3.5 0.00 0.88 0.78 91 1016.2
20260903143031 75 321 0.0 4.3 0.00 0.88 0.78 94 1015.9
20260903141531 74 273 0.9 5.2 0.00 0.88 0.78 96 1016.1
20260903140034 74 167 0.9 9.6 0.00 0.88 0.78 96 1016.3
20260903134530 73 240 0.9 3.5 0.00 0.88 0.78 97 1015.9
20260903133029 73 61 0.0 2.6 0.00 0.88 0.78 97 1015.5
20260903131531 73 262 0.0 4.3 0.00 0.88 0.78 97 1015.3
20260903130004 72 345 0.0 3.5 0.00 0.88 0.78 97 1015.8
20260903124503 72 221 0.0 2.6 0.00 0.88 0.78 97 1015.8
20260903123005 72 352 0.0 4.3 0.00 0.88 0.78 97 1016.0
20260903121512 72 202 0.0 4.3 0.00 0.88 0.78 97 1016.0
20260903120008 71 167 0.0 1.7 0.01 0.88 0.78 97 1015.5
20260903114508 71 203 0.9 2.6 0.01 0.88 0.78 97 1016.7
20260903113009 71 293 0.0 3.5 0.01 0.88 0.78 97 1016.6
20260903111506 70 175 0.0 1.7 0.01 0.88 0.78 97 1017.3
20260903110004 70 282 0.0 1.7 0.02 0.87 0.77 97 1017.5
20260903104504 70 198 0.0 2.6 0.02 0.87 0.77 97 1017.2
20260903103018 70 259 0.0 1.7 0.03 0.87 0.77 97 1016.7
20260903101513 70 228 0.0 1.7 0.03 0.87 0.77 96 1016.9
20260903100014 70 229 0.0 1.7 0.02 0.85 0.75 96 1017.1
20260903094514 70 224 0.0 1.7 0.15 0.85 0.75 96 1017.2
20260903093014 70 260 0.0 1.7 0.34 0.84 0.74 96 1017.3
20260903091508 70 260 0.0 0.0 0.34 0.84 0.74 96 1017.4
20260903090008 70 260 0.0 0.0 0.33 0.83 0.73 96 1017.3
20260903084504 70 260 0.0 1.7 0.20 0.70 0.60 96 1019.2
20260903083021 70 312 0.0 3.5 0.01 0.50 0.40 96 1019.1
20260903081518 70 347 0.0 0.0 0.01 0.50 0.40 96 1017.1
20260903080018 70 347 0.0 0.0 0.01 0.50 0.40 96 1016.9
20260903074520 70 347 0.0 0.0 0.01 0.50 0.40 96 1017.1
20260903073023 70 347 0.0 0.0 0.01 0.49 0.39 96 1017.3
20260903071513 70 347 0.0 0.0 0.03 0.49 0.39 96 1017.1
20260903070016 70 347 0.0 0.9 0.15 0.49 0.39 95 1017.4
20260903064521 70 195 0.0 1.7 0.39 0.49 0.39 95 1017.5
20260903063023 70 195 0.0 0.9 0.38 0.48 0.38 95 1017.3
20260903061539 71 195 0.0 1.7 0.36 0.46 0.36 95 1017.7
20260903060026 71 195 0.0 0.9 0.24 0.34 0.24 95 1019.2
20260903054525 71 303 0.0 1.7 0.00 0.10 0.00 95 1019.4
20260903053020 71 326 0.0 0.0 0.00 0.10 0.00 95 1017.8
20260903051515 71 326 0.0 0.0 0.00 0.10 0.00 95 1017.7
20260903050016 71 326 0.0 1.7 0.00 0.10 0.00 95 1017.8
20260903044511 71 326 0.0 0.0 0.00 0.10 0.00 95 1017.7
20260903043010 71 326 0.0 0.0 0.00 0.10 0.00 95 1018.0
20260903041505 71 326 0.0 0.0 0.00 0.10 0.00 95 1018.2
20260903040004 71 326 0.0 0.0 0.00 0.10 0.00 95 1018.5
20260903034504 71 326 0.0 1.7 0.00 0.10 0.10 94 1018.6
20260903033026 71 326 0.0 0.0 0.00 0.10 0.10 94 1018.5
20260903031525 71 326 0.0 0.0 0.00 0.10 0.10 94 1018.7
20260903030018 71 326 0.0 0.0 0.00 0.10 0.10 94 1018.4
20260903024513 71 326 0.0 1.7 0.00 0.11 0.10 94 1018.7
20260903023010 71 326 0.0 0.0 0.00 0.11 0.10 94 1018.6
20260903021508 71 326 0.0 1.7 0.00 0.11 0.10 94 1018.2
20260903020010 71 342 0.0 0.9 0.00 0.11 0.10 95 1018.0
20260903014504 72 342 0.0 0.0 0.00 0.11 0.10 95 1018.1
20260903013027 72 342 0.0 0.9 0.00 0.11 0.10 95 1018.3
20260903011524 71 342 0.0 1.7 0.00 0.11 0.10 95 1018.4
20260903010017 72 342 0.0 1.7 0.00 0.11 0.10 95 1018.7
20260903004514 72 1 0.0 0.9 0.00 0.47 0.10 95 1018.4
20260903003015 72 1 0.0 0.0 0.00 0.74 0.10 95 1018.4
20260903001507 72 1 0.0 1.7 0.00 0.74 0.10 95 1018.3
20260903000008 72 1 0.0 1.7 0.00 0.74 0.10 95 1018.2
20260902234528 72 1 0.0 1.7 0.00 0.74 0.10 95 1018.0
20260902233030 72 1 0.0 0.0 0.00 0.74 0.10 95 1018.0
20260902231540 72 1 0.0 1.7 0.00 0.74 0.10 95 1018.1
20260902230023 72 1 0.0 1.7 0.00 0.74 0.10 95 1018.1
20260902224518 72 18 0.0 0.0 0.00 0.74 0.10 95 1018.3
20260902223027 72 18 0.0 0.0 0.00 0.74 0.10 95 1018.5
20260902221520 72 18 0.0 0.0 0.00 0.74 0.10 95 1018.8
20260902220010 72 18 0.0 1.7 0.00 0.74 0.10 95 1018.8
20260902214540 72 20 0.0 0.9 0.00 0.74 0.10 95 1018.5
20260902213030 72 20 0.0 0.9 0.00 0.74 0.10 95 1018.5
20260902211531 72 336 0.0 1.7 0.00 0.74 0.10 95 1018.2
20260902210025 73 336 0.0 0.0 0.00 0.74 0.10 95 1018.4
20260902204522 73 336 0.0 0.0 0.00 0.74 0.10 95 1018.5
20260902203018 72 336 0.0 0.0 0.00 0.74 0.10 95 1018.6
20260902201517 73 336 0.0 1.7 0.00 0.74 0.10 96 1018.4
20260902200031 73 334 0.0 1.7 0.00 0.74 0.10 96 1018.3
20260902194547 73 23 0.0 0.0 0.00 0.74 0.10 96 1018.4